User: anonymous   Login
Location: Unspecified
(0.0000°N, 0.0000°E)
Time: 18:50:41
(UTC+02:00)
Language:

ISS - Orbit

View from above orbital plane
View from above orbital plane
View from above satellite
View from above satellite

Ground track
Ground track

The orbit data is extracted from the following two-line orbital elements,

1 25544U 98067A   16179.56472753  .00002657  00000-0  46431-4 0  9995
2 25544  51.6453   6.2646 0000799  27.5271  35.1362 15.54689725  6603
Epoch (UTC): 27 June 2016 13:33:12
Eccentricity: 0.0000799
inclination: 51.6453°
perigee height: 402 km
apogee height: 403 km
right ascension of ascending node: 6.2646°
argument of perigee: 27.5271°
revolutions per day: 15.54689725
mean anomaly at epoch: 35.1362°
orbit number at epoch: 660

The dashed part of the orbit path shows where the satellite is in the earth's shadow,  

DLR